Iridium 15 - Orbit

View from above orbital plane
View from above orbital plane
View from above satellite
View from above satellite

Ground track
Ground track

The orbit data is extracted from the following two-line orbital elements,

1 24869U 97034A   13143.45227339  .00000393  00000-0  13320-3 0  4137
2 24869 086.3960 282.7979 0002253 107.5150 313.9090 14.34212521830964
Epoch (UTC): 23 May 2013 10:51:16
Eccentricity: 0.0002253
inclination: 86.3960°
perigee height: 776 km
apogee height: 779 km
right ascension of ascending node: 282.7979°
argument of perigee: 107.5150°
revolutions per day: 14.34212521
mean anomaly at epoch: 313.9090°
orbit number at epoch: 83096

The dashed part of the orbit path shows where the satellite is in the earth's shadow,  

Developed and maintained by Chris Peat, Heavens-Above GmbH. Please read the updated FAQ before sending e-mail. Imprint. DLR